BANXING-2 (41834 NORAD) Tracking and Keplerian Element Data

This shows tracking and keplerian element data for the satellite.

Feedback or suggestion? Click here.




ElementValue
Catalog41834
NameBANXING-2
Epoch Orbit15730
Epoch Day196.8539505
Epoch Year2019
RAAN1.0114
Inclination42.7397
Eccentricity0.0012294
Argument of Perigee179.0025
Mean Anonmoly218.7654
Mean Motion16.57123749
Decay Rate0.26484373
L11 41834U 16057H 19196.85395050 .26484373 93126-5 95567-4 0 9999
L22 41834 42.7397 1.0114 0012294 179.0025 218.7654 16.57123749157307

Live tracking and technical data element details for BANXING-2 (NORAD 41834). BANXING-2 can be tracked NOW for your location showing map with azimuth and elevation plus other details from your city location.

Track the satellite on the map from your city or location and see movement details for azimuth, elevation, latitude, longitude, range, height, and movement on the map or in text.







IsCatalogInMostPopularTable: catalog: 41834, numindb: 547
Update: records affected: 1



GetName: 41834 BANXING-2

Hit Count: updated at: Mon, 27 Sep 2021 00:40:16 GMT